{"data":{"norad_id":58530,"intl_designator":"2023-191Y","name":"STARLINK-31009","alt_names":[],"object_type":"PAYLOAD","status":"ACTIVE","operator":null,"country":"US","launch_date":"2023-12-07","launch_site_code":"AFETR","launch_vehicle":null,"mission":null,"orbit_class":"UNKNOWN","rcs_meters":null,"size_class":null,"mass_kg":null,"dimensions":null,"purposes":["comms"],"wikipedia_slug":null,"has_3d_model":false,"image_url":null,"decayed_at":null,"tle_current":{"epoch":"2026-09-20T21:09:30.848256Z","epoch_age_seconds":114084,"freshness":"FRESH","line1":"1 58530U 23191Y   26263.88160704  .00002835  00000+0  11244-3 0  9992","line2":"2 58530  43.0060  81.0661 0000858 282.6260  77.4496 15.27599965155348","mean_motion":15.27599965,"eccentricity":8.58e-5,"inclination_deg":43.006,"raan_deg":81.0661,"arg_perigee_deg":282.626,"mean_anomaly_deg":77.4496,"bstar":0.00011244,"rev_number":15534,"period_min":94.265516692389,"perigee_km":482.40062966062,"apogee_km":483.57799893616,"semimajor_km":6861.1263142984,"source":"CELESTRAK","updated_at":"2026-09-21T09:00:33.911333Z"}}}